Panama City, FL

3:44 AM CDT on April 25, 2017 (GMT -0500)
Northwest Florida Beaches International

Weather History for KECP - October, 2012

Change the Weather History Date:

Saturday, October 20, 2012

  Actual Average Record
Temperature  
Mean Temperature 63 °F -  
Max Temperature 78 °F - 89 °F (2016)
Min Temperature 48 °F - 42 °F (2011)
Degree Days  
Heating Degree Days 2    
Cooling Degree Days 0    
Growing Degree Days 12 (Base 50)    
Moisture  
Dew Point 49 °F    
Average Humidity 62    
Maximum Humidity 93    
Minimum Humidity 31    
Precipitation  
Precipitation 0.00 in - 0.00 in (2017)
Month to date precipitation  
Year to date precipitation  
Sea Level Pressure  
Sea Level Pressure 29.98 in    
Wind  
Wind Speed 2 mph (WNW)    
Max Wind Speed 13 mph    
Max Gust Speed 29 mph    
Visibility 10 miles    
Events      
T = Trace of Precipitation, MM = Missing Value Source: NWS Daily Summary

Daily Weather History Graph

Daily Weather History Graph

Search for Another Location

Airport or City:

Trip Planner

Search our weather history database for the weather conditions in past years. The results will help you decide how hot, cold, wet, or windy it might be!

Date:

Astronomy

Oct. 20, 2012 Rise Set
Actual Time 7:49 AM EDT 7:06 PM EDT
Civil Twilight 7:24 AM EDT 7:30 PM EDT
Nautical Twilight 6:56 AM EDT 7:58 PM EDT
Astronomical Twilight 6:28 AM EDT 8:26 PM EDT
Moon 1:12 PM EDT (10/20) No Moon Set
Length of Visible Light 12h 05m
Length of Day
11h 17m
Waxing Crescent, 34% of the Moon is Illuminated
Oct 20
Waxing Crescent
Oct 21
First Quarter
Oct 29
Full
Nov 6
Last Quarter
Nov 13
New

Hourly Weather History & Observations

Time (EDT) Temp. Dew Point Humidity Pressure Visibility Wind Dir Wind Speed Gust Speed Precip Events Conditions
12:53 AM 54.0 °F 50.0 °F 86% 29.93 in 10.0 mi Calm Calm - N/A   Clear
1:53 AM 53.1 °F 50.0 °F 89% 29.93 in 10.0 mi Calm Calm - N/A   Clear
2:53 AM 53.1 °F 50.0 °F 89% 29.94 in 10.0 mi NW 4.6 mph - N/A   Clear
3:53 AM 53.1 °F 50.0 °F 89% 29.94 in 10.0 mi Calm Calm - N/A   Clear
4:53 AM 52.0 °F 48.0 °F 86% 29.94 in 10.0 mi WNW 3.5 mph - N/A   Clear
5:53 AM 50.0 °F 48.0 °F 93% 29.95 in 10.0 mi Calm Calm - N/A   Clear
6:53 AM 48.9 °F 46.9 °F 93% 29.97 in 10.0 mi Calm Calm - N/A   Clear
7:53 AM 48.0 °F 46.0 °F 93% 29.99 in 10.0 mi Calm Calm - N/A   Clear
8:53 AM 53.1 °F 48.0 °F 83% 30.00 in 10.0 mi Calm Calm - N/A   Clear
9:53 AM 60.1 °F 50.0 °F 69% 30.02 in 10.0 mi WNW 3.5 mph - N/A   Clear
10:53 AM 68.0 °F 48.9 °F 50% 30.02 in 10.0 mi Calm Calm - N/A   Clear
11:53 AM 72.0 °F 43.0 °F 35% 30.02 in 10.0 mi NNW 5.8 mph - N/A   Clear
12:53 PM 73.9 °F 45.0 °F 35% 30.01 in 10.0 mi Variable 5.8 mph - N/A   Clear
1:53 PM 75.0 °F 44.1 °F 33% 29.99 in 10.0 mi WNW 6.9 mph - N/A   Clear
2:53 PM 77.0 °F 45.0 °F 32% 29.96 in 10.0 mi NW 10.4 mph - N/A   Clear
3:53 PM 77.0 °F 45.0 °F 32% 29.95 in 10.0 mi West 4.6 mph - N/A   Clear
4:53 PM 77.0 °F 44.1 °F 31% 29.94 in 10.0 mi Calm Calm - N/A   Clear
5:53 PM 73.9 °F 48.9 °F 41% 29.95 in 10.0 mi WSW 10.4 mph - N/A   Clear
6:53 PM 70.0 °F 51.1 °F 51% 29.96 in 10.0 mi WSW 3.5 mph - N/A   Clear
7:53 PM 64.9 °F 55.0 °F 70% 29.97 in 10.0 mi Calm Calm - N/A   Clear
8:53 PM 60.1 °F 55.9 °F 86% 29.99 in 10.0 mi Calm Calm - N/A   Clear
9:53 PM 57.0 °F 53.1 °F 87% 30.00 in 10.0 mi Calm Calm - N/A   Clear
10:53 PM 55.0 °F 52.0 °F 89% 30.02 in 10.0 mi Calm Calm - N/A   Clear
11:53 PM 55.0 °F 52.0 °F 89% 30.02 in 10.0 mi Calm Calm - N/A   Clear